CYCB

Cambridge Bay Airport

Cambridge Bay, Canada
Issued Wind Visibility Ceiling Temperature Dew Point Humidity Barometer
Sep-20
00:00 UTC
080°
14 KTS
15 miles Broken
1,400' AGL
C
32° F
-3° C
27° F
80% 30.26" Hg
1025.1 hPa
MVFR
Sep-19
23:00 UTC
070°
11 KTS
Gust 16 KTS
15 miles Broken
1,200' AGL
C
32° F
-3° C
27° F
80% 30.25" Hg
1024.8 hPa
MVFR
Sep-19
22:00 UTC
090°
14 KTS
15 miles Broken
1,200' AGL
C
32° F
-3° C
27° F
80% 30.25" Hg
1024.8 hPa
MVFR
Sep-19
21:00 UTC
060°
11 KTS
15 miles Broken
1,000' AGL
C
32° F
-3° C
27° F
80% 30.24" Hg
1024.5 hPa
MVFR
Sep-19
20:24 UTC
070°
13 KTS
15 miles Overcast
1,000' AGL
C
32° F
-3° C
27° F
80% 30.24" Hg
1024.4 hPa
MVFR
Sep-19
20:00 UTC
070°
11 KTS
Gust 16 KTS
15 miles Overcast
900' AGL
C
32° F
-2° C
28° F
87% 30.24" Hg
1024.4 hPa
IFR
Sep-19
19:00 UTC
070°
14 KTS
15 miles Overcast
800' AGL
C
32° F
-2° C
28° F
87% 30.23" Hg
1024.1 hPa
IFR
Sep-19
18:00 UTC
060°
11 KTS
15 miles Overcast
900' AGL
C
32° F
-2° C
28° F
87% 30.22" Hg
1023.9 hPa
IFR
Sep-19
17:47 UTC
060°
10 KTS
Gust 16 KTS
15 miles Overcast
900' AGL
C
32° F
-2° C
28° F
87% 30.22" Hg
1023.8 hPa
IFR
Sep-19
17:00 UTC
060°
13 KTS
15 miles Overcast
700' AGL
C
32° F
-2° C
28° F
87% 30.21" Hg
1023.6 hPa
IFR
Sep-19
16:00 UTC
060°
11 KTS
Gust 16 KTS
15 miles Broken
700' AGL
-1° C
30° F
-2° C
28° F
93% 30.21" Hg
1023.3 hPa
IFR
Sep-19
15:00 UTC
060°
11 KTS
Gust 16 KTS
15 miles Broken
700' AGL
-1° C
30° F
-2° C
28° F
93% 30.19" Hg
1022.9 hPa
IFR
Sep-19
14:00 UTC
060°
14 KTS
15 miles Broken
700' AGL
-1° C
30° F
-3° C
27° F
86% 30.18" Hg
1022.6 hPa
IFR
Sep-19
13:00 UTC
070°
13 KTS
15 miles Broken
700' AGL
-1° C
30° F
-3° C
27° F
86% 30.18" Hg
1022.5 hPa
IFR
Sep-19
12:00 UTC
060°
14 KTS
15 miles Broken
700' AGL
-1° C
30° F
-3° C
27° F
86% 30.17" Hg
1022 hPa
IFR
Sep-19
11:30 UTC
060°
14 KTS
15 miles Broken
1,200' AGL
-1° C
30° F
-3° C
27° F
86% 30.17" Hg
1022 hPa
MVFR
Sep-19
11:00 UTC
070°
13 KTS
Gust 18 KTS
12 miles Overcast
800' AGL
-1° C
30° F
-2° C
28° F
93% 30.16" Hg
1021.7 hPa
IFR
Sep-19
10:00 UTC
050°
16 KTS
12 miles Overcast
800' AGL
-1° C
30° F
-3° C
27° F
86% 30.15" Hg
1021.3 hPa
IFR
Sep-19
09:00 UTC
050°
15 KTS
12 miles Overcast
800' AGL
-1° C
30° F
-2° C
28° F
93% 30.14" Hg
1021.1 hPa
IFR
Sep-19
08:00 UTC
050°
15 KTS
12 miles Overcast
800' AGL
-1° C
30° F
-2° C
28° F
93% 30.13" Hg
1020.6 hPa
IFR
Sep-19
07:00 UTC
050°
14 KTS
12 miles Overcast
800' AGL
-1° C
30° F
-2° C
28° F
93% 30.12" Hg
1020.5 hPa
IFR
Sep-19
06:00 UTC
050°
14 KTS
10 miles Overcast
800' AGL
-1° C
30° F
-2° C
28° F
93% 30.11" Hg
1020.1 hPa
IFR
Sep-19
05:00 UTC
050°
10 KTS
10 miles Overcast
800' AGL
-1° C
30° F
-3° C
27° F
86% 30.1" Hg
1019.9 hPa
IFR
Sep-19
04:15 UTC
050°
15 KTS
10 miles Overcast
800' AGL
-1° C
30° F
-3° C
27° F
86% 30.1" Hg
1019.7 hPa
IFR
Sep-19
04:00 UTC
050°
15 KTS
10 miles Overcast
700' AGL
-1° C
30° F
-3° C
27° F
86% 30.1" Hg
1019.7 hPa
IFR
Sep-19
03:00 UTC
050°
15 KTS
12 miles Broken
700' AGL
-1° C
30° F
-3° C
27° F
86% 30.08" Hg
1019.1 hPa
IFR
Sep-19
02:52 UTC
050°
15 KTS
12 miles Broken
700' AGL
-1° C
30° F
-2° C
28° F
93% 30.08" Hg
1019.1 hPa
IFR
Sep-19
02:00 UTC
050°
13 KTS
Gust 18 KTS
15 miles Broken
600' AGL
-1° C
30° F
-2° C
28° F
93% 30.08" Hg
1018.9 hPa
IFR
Sep-19
01:00 UTC
050°
15 KTS
15 miles Overcast
600' AGL
C
32° F
-2° C
28° F
87% 30.06" Hg
1018.4 hPa
IFR